Home   Weather   Lund   Past weeks

Flag for Sweden Past Weather in Lund, Sweden — Yesterday and Last 2 Weeks

46 °F


Feels Like: 41 °F
Forecast: 42 / 47 °F
Wind: 10 mph from East

Location: Malmo / Sturup

Current Time: Oct 21, 2016 at 8:31:10 PM

Latest Report: Oct 21, 2016 at 7:50 PM

Visibility: 10 mi

Pressure: 30.01 "Hg

Humidity: 93%

Dew Point: 45 °F

Location of LundLocation

Past Weather in Lund — Graph


Lund Temperature Yesterday

Maximum temperature yesterday: 54 °F (at 1:50 PM)
Minimum temperature yesterday: 43 °F (at 5:50 AM)
Average temperature yesterday: 48 °F

High & Low Weather Summary for the Past Weeks

High55 °F (Oct 7, 4:50 PM)100% (Oct 8, 2:20 AM)30.36 "Hg (Oct 8, 2:20 AM)
Low37 °F (Oct 8, 5:50 AM)58% (Oct 7, 4:20 PM)29.92 "Hg (Oct 19, 7:50 PM)
Average47 °F87%30.19 "Hg
* Reported Oct 6 7:20 PM — Oct 21 7:20 PM, Lund, Weather by CustomWeather, © 2016

Note: Actual official high and low records may vary slightly from our data, if they occured in-between our weather recording intervals... More about our weather records


Lund Weather History for the Previous 24 Hours

Scroll right to see more
Time TempWeatherWind HumidityBarometerVisibility
7:20 PM
Fri, Oct 21
46 °FFog.12 mph93%30.01 "Hg6 mi
6:50 PM46 °FMostly cloudy.12 mph93%30.01 "HgN/A
6:20 PM46 °FFog.12 mph93%30.01 "Hg4 mi
5:50 PM46 °FPassing clouds.10 mph93%30.01 "HgN/A
5:20 PM46 °FRain. Partly sunny.9 mph93%30.01 "Hg4 mi
4:50 PM46 °FRain. Broken clouds.10 mph93%30.01 "Hg5 mi
4:20 PM46 °FLight rain. Broken clouds.9 mph93%30.01 "Hg3 mi
3:50 PM46 °FDrizzle. Partly sunny.12 mph93%29.98 "Hg4 mi
3:20 PM46 °FPartly sunny.12 mph93%29.98 "HgN/A
2:50 PM46 °FPartly sunny.10 mph93%29.98 "HgN/A
2:20 PM46 °FDrizzle. Fog.12 mph93%29.98 "Hg3 mi
1:50 PM46 °FLight rain. Partly sunny.13 mph93%29.98 "Hg2 mi
1:20 PM46 °FPartly sunny.13 mph93%29.98 "HgN/A
12:50 PM46 °FPartly sunny.14 mph93%29.98 "HgN/A
12:20 PM46 °FPartly sunny.14 mph93%29.98 "HgN/A
11:50 AM46 °FDrizzle. Partly sunny.15 mph93%29.98 "HgN/A
11:20 AM46 °FDrizzle. Partly sunny.14 mph93%29.98 "HgN/A
10:50 AM46 °FDrizzle. Partly sunny.14 mph93%29.98 "HgN/A
10:20 AM46 °FDrizzle. Broken clouds.14 mph93%29.98 "HgN/A
9:50 AM46 °FDrizzle. More clouds than sun.14 mph93%29.95 "HgN/A
9:20 AM45 °FDrizzle. Partly sunny.14 mph93%29.95 "HgN/A
8:50 AM45 °FDrizzle. Fog.14 mph93%29.95 "Hg6 mi
8:20 AM45 °FDrizzle. Partly sunny.13 mph93%29.95 "Hg6 mi
7:50 AM45 °FDrizzle. Partly sunny.14 mph93%29.95 "Hg6 mi
7:20 AM45 °FPassing clouds.14 mph93%29.95 "HgN/A
6:50 AM46 °FDrizzle. Overcast.14 mph93%29.95 "HgN/A
6:20 AM46 °FPassing clouds.14 mph93%29.95 "HgN/A
5:50 AM46 °FPassing clouds.13 mph93%29.95 "HgN/A
5:20 AM46 °FLight rain. Passing clouds.13 mph93%29.95 "HgN/A
4:50 AM46 °FLight rain. Overcast.14 mph93%29.95 "HgN/A
4:20 AM46 °FLight rain. Partly cloudy.12 mph93%29.95 "HgN/A
3:50 AM48 °FRain. Overcast.12 mph94%29.95 "HgN/A
3:20 AM48 °FRain. Overcast.9 mph94%29.95 "Hg5 mi
2:50 AM46 °FRain. Partly cloudy.9 mph100%29.98 "Hg3 mi
2:20 AM46 °FRain. Fog.12 mph100%29.98 "Hg3 mi
1:50 AM46 °FRain. Fog.9 mph100%30.01 "Hg2 mi
1:20 AM46 °FRain. Fog.9 mph93%30.01 "Hg2 mi
12:50 AM46 °FDrizzle. Fog.6 mph93%30.01 "Hg4 mi
12:20 AM46 °FDrizzle. Fog.7 mph93%30.04 "Hg5 mi
11:50 PM
Thu, Oct 20
46 °FLight rain. Fog.8 mph93%30.04 "Hg4 mi
11:20 PM46 °FRain. Fog.7 mph100%30.04 "Hg3 mi
10:50 PM46 °FPartly cloudy.7 mph93%30.04 "Hg4 mi
10:20 PM46 °FPassing clouds.7 mph93%30.04 "Hg5 mi
9:50 PM46 °FPassing clouds.7 mph93%30.07 "HgN/A
9:20 PM46 °FClear.7 mph93%30.07 "Hg10 mi
8:50 PM46 °FPassing clouds.7 mph93%30.07 "HgN/A
8:20 PM48 °FClear.8 mph87%30.07 "Hg10 mi
Weather by CustomWeather, © 2016

See weather overviewHow to use our weather pages